Apalachicola, FL

5:17 AM EST on December 14, 2017 (GMT -0500)
Apalachicola Municipal

Weather History for KAAF - October, 2013

Change the Weather History Date:

Friday, October 4, 2013

  Actual Average Record
Temperature  
Mean Temperature 80 °F 75 °F  
Max Temperature 87 °F 84 °F 90 °F (1986)
Min Temperature 72 °F 65 °F 50 °F (1974)
Degree Days  
Heating Degree Days 0    
Month to date heating degree days 0  
Since 1 July heating degree days 0  
Cooling Degree Days 15    
Month to date cooling degree days 54  
Year to date cooling degree days 2451  
Growing Degree Days 29 (Base 50)    
Moisture  
Dew Point 73 °F    
Average Humidity 82    
Maximum Humidity 94    
Minimum Humidity 70    
Precipitation  
Precipitation 0.00 in 0.18 in 2.14 in (1995)
Month to date precipitation T 0.74  
Year to date precipitation 49.52 47.41  
Sea Level Pressure  
Sea Level Pressure 30.06 in    
Wind  
Wind Speed 6 mph (East)    
Max Wind Speed 14 mph    
Max Gust Speed 20 mph    
Visibility 10 miles    
Events      
T = Trace of Precipitation, MM = Missing Value Source: NWS Daily Summary

Daily Weather History Graph

Daily Weather History Graph

Search for Another Location

Airport or City:

Trip Planner

Search our weather history database for the weather conditions in past years. The results will help you decide how hot, cold, wet, or windy it might be!

Date:

Astronomy

Oct. 04, 2013 Rise Set
Actual Time 7:35 AM EDT 7:21 PM EDT
Civil Twilight 7:11 AM EDT 7:45 PM EDT
Nautical Twilight 6:43 AM EDT 8:13 PM EDT
Astronomical Twilight 6:16 AM EDT 8:40 PM EDT
Moon 7:09 AM EDT (10/4) 7:06 PM EDT (10/4)
Length of Visible Light 12h 34m
Length of Day
11h 46m
Waning Crescent, 0% of the Moon is Illuminated
Oct 4
Waning Crescent
Oct 4
New
Oct 11
First Quarter
Oct 18
Full
Oct 26
Last Quarter

Hourly Weather History & Observations

Time (EDT) Temp. Heat Index Dew Point Humidity Pressure Visibility Wind Dir Wind Speed Gust Speed Precip Events Conditions
12:53 AM 75.0 °F - 71.1 °F 87% 30.04 in 10.0 mi NE 5.8 mph - N/A   Clear
1:53 AM 75.0 °F - 70.0 °F 84% 30.05 in 10.0 mi NE 3.5 mph - N/A   Clear
2:53 AM 72.0 °F - 68.0 °F 87% 30.04 in 10.0 mi Calm Calm - N/A   Clear
3:53 AM 72.0 °F - 68.0 °F 87% 30.02 in 10.0 mi ENE 4.6 mph - N/A   Clear
4:53 AM 72.0 °F - 68.0 °F 87% 30.02 in 10.0 mi ENE 4.6 mph - N/A   Clear
5:53 AM 72.0 °F - 69.1 °F 91% 30.02 in 10.0 mi ENE 4.6 mph - N/A   Clear
6:53 AM 72.0 °F - 69.1 °F 91% 30.04 in 10.0 mi NE 5.8 mph - N/A   Clear
7:53 AM 72.0 °F - 70.0 °F 93% 30.05 in 7.0 mi ENE 3.5 mph - N/A   Clear
8:53 AM 77.0 °F - 73.0 °F 88% 30.07 in 10.0 mi NE 4.6 mph - N/A   Clear
9:24 AM 78.8 °F - 73.4 °F 83% 30.07 in 10.0 mi ENE 5.8 mph - N/A   Mostly Cloudy
9:50 AM 82.4 °F 89.5 °F 75.2 °F 79% 30.08 in 10.0 mi ENE 5.8 mph - N/A   Scattered Clouds
9:53 AM 82.0 °F 88.6 °F 75.0 °F 79% 30.08 in 10.0 mi ENE 5.8 mph - N/A   Scattered Clouds
10:09 AM 82.4 °F 89.5 °F 75.2 °F 79% 30.08 in 10.0 mi East 9.2 mph - N/A   Mostly Cloudy
10:53 AM 84.0 °F 91.9 °F 75.0 °F 74% 30.09 in 10.0 mi ESE 10.4 mph 18.4 mph N/A   Mostly Cloudy
11:16 AM 84.2 °F 92.3 °F 75.2 °F 74% 30.10 in 10.0 mi East 11.5 mph - N/A   Scattered Clouds
11:53 AM 84.0 °F 92.6 °F 75.9 °F 76% 30.10 in 10.0 mi East 13.8 mph - N/A   Overcast
12:00 PM 84.2 °F 92.3 °F 75.2 °F 74% 30.09 in 10.0 mi East 10.4 mph - N/A   Overcast
12:28 PM 84.2 °F 92.3 °F 75.2 °F 74% 30.09 in 10.0 mi ESE 10.4 mph - N/A   Mostly Cloudy
12:53 PM 84.9 °F 93.3 °F 75.0 °F 72% 30.09 in 10.0 mi East 12.7 mph - N/A   Overcast
1:53 PM 84.9 °F 94.1 °F 75.9 °F 74% 30.07 in 10.0 mi East 11.5 mph 16.1 mph N/A   Scattered Clouds
2:53 PM 86.0 °F 96.0 °F 75.9 °F 72% 30.05 in 10.0 mi East 11.5 mph - N/A   Partly Cloudy
3:53 PM 86.0 °F 96.0 °F 75.9 °F 72% 30.03 in 10.0 mi ESE 10.4 mph - N/A   Partly Cloudy
4:53 PM 84.9 °F 93.3 °F 75.0 °F 72% 30.03 in 10.0 mi SE 10.4 mph - N/A   Partly Cloudy
5:53 PM 84.0 °F 92.6 °F 75.9 °F 76% 30.03 in 10.0 mi SE 8.1 mph - N/A   Clear
6:53 PM 82.0 °F 88.6 °F 75.0 °F 79% 30.03 in 10.0 mi SE 5.8 mph - N/A   Clear
7:53 PM 79.0 °F - 75.0 °F 88% 30.04 in 10.0 mi Calm Calm - N/A   Clear
8:53 PM 78.1 °F - 73.9 °F 87% 30.05 in 10.0 mi Calm Calm - N/A   Clear
9:53 PM 77.0 °F - 73.0 °F 88% 30.07 in 10.0 mi Calm Calm - N/A   Clear
10:53 PM 75.9 °F - 73.0 °F 91% 30.08 in 10.0 mi Calm Calm - N/A   Clear
11:53 PM 75.0 °F - 72.0 °F 90% 30.08 in 10.0 mi Calm Calm - N/A   Clear